RYR6DB EGCC-BIKF

Flight info

Callsign RYR6DB
Flight time 2h 31m
Altitude 36000
Route POL N601 ERGAB DCT BARKU DCT RATSU/M079F360 DCT ALDAN DCT ASRUN ASRUN4N
Aircraft B738/M-SDE2E3FGHIRWXY/LB1

Departure

Time 2026-05-04 12:36
Airport Manchester Airport (EGCC)

Arrival

Time 2026-05-04 15:08
Airport Keflavik International Airport (BIKF)
Time Latitude Longitude Altitude Speed Heading
2026-05-04 11:52 53.35903 -2.27114 254 ft 0 kts 53°
2026-05-04 12:23 53.35893 -2.27137 254 ft 4 kts 63°
2026-05-04 12:23 53.35885 -2.27179 254 ft 4 kts 91°
2026-05-04 12:24 53.35892 -2.27218 254 ft 4 kts 135°
2026-05-04 12:24 53.35905 -2.27233 254 ft 1 kts 170°
2026-05-04 12:27 53.35891 -2.27229 254 ft 6 kts 171°
2026-05-04 12:27 53.35830 -2.27235 254 ft 12 kts 205°
2026-05-04 12:27 53.35784 -2.27325 254 ft 15 kts 233°
2026-05-04 12:27 53.35702 -2.27501 254 ft 22 kts 232°
2026-05-04 12:28 53.35591 -2.27703 252 ft 26 kts 224°
2026-05-04 12:28 53.35458 -2.27918 245 ft 27 kts 224°
2026-05-04 12:28 53.35326 -2.28132 238 ft 26 kts 224°
2026-05-04 12:28 53.35209 -2.28344 232 ft 24 kts 232°
2026-05-04 12:29 53.35109 -2.28555 226 ft 23 kts 231°
2026-05-04 12:29 53.35007 -2.28752 220 ft 22 kts 227°
2026-05-04 12:29 53.34902 -2.28935 214 ft 21 kts 226°
2026-05-04 12:29 53.34804 -2.29119 209 ft 21 kts 230°
2026-05-04 12:30 53.34717 -2.29290 211 ft 13 kts 221°
2026-05-04 12:30 53.34686 -2.29322 207 ft 0 kts 206°
2026-05-04 12:34 53.34669 -2.29333 208 ft 9 kts 197°
2026-05-04 12:34 53.34561 -2.29311 210 ft 18 kts 142°
2026-05-04 12:34 53.34572 -2.29159 208 ft 14 kts 52°
2026-05-04 12:35 53.34578 -2.29145 208 ft 0 kts 52°
2026-05-04 12:35 53.34648 -2.28999 213 ft 53 kts 51°
2026-05-04 12:36 53.35045 -2.28180 228 ft 131 kts 51°
2026-05-04 12:36 53.35513 -2.27227 318 ft 172 kts 50°
2026-05-04 12:36 53.36306 -2.25575 1137 ft 188 kts 52°
2026-05-04 12:36 53.37130 -2.23777 2120 ft 197 kts 52°
2026-05-04 12:37 53.37978 -2.21949 2545 ft 195 kts 52°
2026-05-04 12:37 53.38734 -2.20327 3024 ft 163 kts 52°
2026-05-04 12:37 53.39400 -2.18896 3494 ft 155 kts 52°
2026-05-04 12:37 53.40122 -2.17341 3784 ft 186 kts 52°
2026-05-04 12:38 53.40991 -2.15468 4057 ft 215 kts 52°
2026-05-04 12:38 53.41948 -2.13402 4271 ft 240 kts 52°
2026-05-04 12:38 53.43028 -2.11071 4695 ft 260 kts 51°
2026-05-04 12:38 53.44428 -2.09131 4966 ft 266 kts 22°
2026-05-04 12:39 53.46238 -2.08775 4989 ft 266 kts 349°
2026-05-04 12:39 53.47944 -2.09924 5025 ft 267 kts 332°
2026-05-04 12:39 53.49728 -2.10850 5545 ft 271 kts 351°
2026-05-04 12:39 53.51591 -2.11322 6516 ft 270 kts 351°
2026-05-04 12:40 53.53447 -2.11847 7353 ft 272 kts 349°
2026-05-04 12:40 53.55327 -2.12424 8165 ft 276 kts 349°
2026-05-04 12:40 53.57199 -2.13030 8953 ft 280 kts 348°
2026-05-04 12:40 53.59122 -2.13675 9773 ft 283 kts 348°
2026-05-04 12:41 53.61072 -2.14345 10397 ft 293 kts 348°
2026-05-04 12:41 53.63154 -2.15074 10577 ft 318 kts 348°
2026-05-04 12:41 53.65372 -2.15860 10982 ft 332 kts 347°
2026-05-04 12:41 53.67653 -2.16673 11654 ft 337 kts 347°
2026-05-04 12:42 53.69909 -2.17482 12390 ft 340 kts 347°
2026-05-04 12:42 53.72158 -2.18291 13108 ft 344 kts 347°
2026-05-04 12:42 53.74511 -2.19140 13827 ft 348 kts 347°
2026-05-04 12:42 53.76889 -2.20000 14462 ft 352 kts 347°
2026-05-04 12:43 53.79219 -2.20843 15098 ft 355 kts 347°
2026-05-04 12:43 53.81648 -2.21724 15754 ft 358 kts 347°
2026-05-04 12:43 53.84095 -2.22613 16404 ft 362 kts 347°
2026-05-04 12:43 53.86536 -2.23500 17015 ft 365 kts 347°
2026-05-04 12:44 53.89032 -2.24408 17646 ft 368 kts 347°
2026-05-04 12:44 53.91548 -2.25325 18281 ft 372 kts 347°
2026-05-04 12:44 53.94091 -2.26253 18849 ft 375 kts 347°
2026-05-04 12:44 53.96644 -2.27185 19417 ft 377 kts 347°
2026-05-04 12:45 53.99212 -2.28124 19999 ft 378 kts 348°
2026-05-04 12:45 54.01766 -2.29130 20551 ft 381 kts 343°
2026-05-04 12:45 54.04262 -2.30697 21057 ft 384 kts 338°
2026-05-04 12:45 54.06739 -2.32463 21585 ft 387 kts 338°
2026-05-04 12:46 54.09197 -2.34226 22109 ft 390 kts 338°
2026-05-04 12:46 54.11715 -2.36000 22632 ft 392 kts 338°
2026-05-04 12:46 54.14247 -2.37763 23149 ft 395 kts 339°
2026-05-04 12:46 54.16781 -2.39639 23632 ft 398 kts 335°
2026-05-04 12:47 54.19268 -2.41754 24048 ft 401 kts 334°
2026-05-04 12:47 54.21740 -2.43970 24496 ft 402 kts 333°
2026-05-04 12:47 54.24215 -2.46227 24938 ft 403 kts 333°
2026-05-04 12:47 54.26692 -2.48490 25364 ft 405 kts 333°
2026-05-04 12:48 54.29149 -2.50726 25773 ft 406 kts 334°
2026-05-04 12:48 54.31654 -2.52997 26182 ft 408 kts 334°
2026-05-04 12:48 54.34167 -2.55268 26578 ft 410 kts 334°
2026-05-04 12:48 54.36697 -2.57548 26956 ft 411 kts 334°
2026-05-04 12:49 54.39237 -2.59838 27333 ft 413 kts 334°
2026-05-04 12:49 54.41783 -2.62133 27713 ft 415 kts 334°
2026-05-04 12:49 54.44347 -2.64447 28085 ft 416 kts 334°
2026-05-04 12:49 54.46913 -2.66765 28450 ft 418 kts 334°
2026-05-04 12:50 54.49460 -2.69069 28804 ft 419 kts 334°
2026-05-04 12:50 54.52044 -2.71411 29155 ft 421 kts 334°
2026-05-04 12:50 54.54643 -2.73769 29497 ft 423 kts 334°
2026-05-04 12:50 54.57251 -2.76139 29819 ft 424 kts 334°
2026-05-04 12:51 54.59860 -2.78514 30136 ft 426 kts 334°
2026-05-04 12:51 54.62488 -2.80909 30403 ft 428 kts 334°
2026-05-04 12:51 54.65126 -2.83318 30627 ft 430 kts 334°
2026-05-04 12:51 54.67722 -2.85691 30851 ft 432 kts 334°
2026-05-04 12:52 54.70383 -2.88128 31078 ft 434 kts 334°
2026-05-04 12:52 54.73057 -2.90580 31309 ft 436 kts 334°
2026-05-04 12:52 54.75711 -2.93017 31538 ft 438 kts 333°
2026-05-04 12:52 54.78398 -2.95489 31820 ft 438 kts 333°
2026-05-04 12:53 54.81086 -2.97965 32153 ft 437 kts 333°
2026-05-04 12:53 54.83768 -3.00441 32468 ft 437 kts 333°
2026-05-04 12:53 54.86451 -3.02920 32745 ft 437 kts 333°
2026-05-04 12:53 54.89133 -3.05402 33008 ft 437 kts 333°
2026-05-04 12:54 54.91820 -3.07892 33302 ft 437 kts 333°
2026-05-04 12:54 54.94462 -3.10344 33601 ft 436 kts 333°
2026-05-04 12:54 54.97140 -3.12833 33892 ft 436 kts 333°
2026-05-04 12:54 54.99811 -3.15320 34175 ft 435 kts 332°
2026-05-04 12:55 55.02476 -3.17804 34427 ft 434 kts 332°
2026-05-04 12:55 55.05140 -3.20293 34659 ft 434 kts 332°
2026-05-04 12:55 55.07798 -3.22778 34885 ft 434 kts 332°
2026-05-04 12:55 55.10459 -3.25270 35100 ft 434 kts 332°
2026-05-04 12:56 55.13118 -3.27764 35347 ft 433 kts 332°
2026-05-04 12:56 55.15770 -3.30256 35569 ft 433 kts 332°
2026-05-04 12:56 55.18383 -3.32715 35786 ft 432 kts 331°
2026-05-04 12:56 55.21028 -3.35207 36024 ft 431 kts 331°
2026-05-04 12:57 55.23682 -3.37712 36017 ft 436 kts 331°
2026-05-04 12:57 55.29025 -3.42766 36031 ft 441 kts 331°
2026-05-04 12:58 55.34411 -3.47877 36019 ft 438 kts 331°
2026-05-04 12:58 55.39706 -3.52916 36017 ft 432 kts 330°
2026-05-04 12:59 55.44946 -3.57918 36025 ft 426 kts 330°
2026-05-04 12:59 55.50142 -3.62894 36034 ft 425 kts 330°
2026-05-04 13:00 55.55347 -3.67894 36034 ft 427 kts 330°
2026-05-04 13:00 55.60554 -3.72912 36040 ft 431 kts 330°
2026-05-04 13:01 55.65060 -3.77266 36034 ft 435 kts 330°
2026-05-04 13:01 55.70379 -3.82419 36035 ft 437 kts 330°
2026-05-04 13:02 55.75648 -3.87540 36020 ft 434 kts 330°
2026-05-04 13:02 55.80888 -3.92648 36031 ft 426 kts 330°
2026-05-04 13:03 55.86049 -3.97696 36041 ft 426 kts 329°
2026-05-04 13:03 55.91248 -4.02797 36042 ft 427 kts 329°
2026-05-04 13:04 55.96446 -4.07913 36037 ft 427 kts 329°
2026-05-04 13:04 56.01643 -4.13043 36040 ft 427 kts 329°
2026-05-04 13:05 56.06807 -4.18156 36042 ft 427 kts 329°
2026-05-04 13:05 56.11824 -4.23140 36040 ft 428 kts 329°
2026-05-04 13:06 56.17028 -4.28323 36034 ft 428 kts 329°
2026-05-04 13:06 56.22233 -4.33525 36029 ft 428 kts 329°
2026-05-04 13:07 56.27401 -4.38706 36031 ft 428 kts 328°
2026-05-04 13:07 56.32591 -4.43924 36035 ft 427 kts 328°
2026-05-04 13:08 56.37772 -4.49151 36026 ft 426 kts 328°
2026-05-04 13:08 56.42938 -4.54379 36033 ft 425 kts 328°
2026-05-04 13:09 56.48064 -4.59582 36031 ft 425 kts 328°
2026-05-04 13:09 56.53213 -4.64826 36030 ft 425 kts 328°
2026-05-04 13:10 56.58359 -4.70083 36040 ft 424 kts 328°
2026-05-04 13:10 56.63497 -4.75349 36039 ft 424 kts 328°
2026-05-04 13:11 56.68604 -4.80599 36036 ft 424 kts 327°
2026-05-04 13:11 56.73737 -4.85891 36036 ft 424 kts 327°
2026-05-04 13:12 56.78861 -4.91193 36031 ft 424 kts 327°
2026-05-04 13:12 56.83992 -4.96517 36030 ft 424 kts 327°
2026-05-04 13:13 56.88993 -5.01724 36032 ft 423 kts 327°
2026-05-04 13:13 56.94103 -5.07061 36037 ft 423 kts 327°
2026-05-04 13:14 56.99177 -5.12377 36040 ft 422 kts 326°
2026-05-04 13:14 57.04275 -5.17734 36033 ft 422 kts 326°
2026-05-04 13:15 57.09323 -5.23057 36038 ft 421 kts 326°
2026-05-04 13:15 57.14390 -5.28415 36035 ft 420 kts 326°
2026-05-04 13:16 57.19446 -5.33780 36035 ft 418 kts 326°
2026-05-04 13:16 57.24480 -5.39139 36035 ft 417 kts 326°
2026-05-04 13:17 57.29469 -5.44466 36031 ft 417 kts 326°
2026-05-04 13:17 57.34487 -5.49842 36032 ft 416 kts 325°
2026-05-04 13:18 57.39494 -5.55223 36025 ft 416 kts 325°
2026-05-04 13:18 57.44497 -5.60617 36026 ft 416 kts 325°
2026-05-04 13:19 57.49459 -5.65984 36019 ft 416 kts 325°
2026-05-04 13:19 57.54454 -5.71404 36037 ft 415 kts 325°
2026-05-04 13:20 57.59440 -5.76831 36017 ft 415 kts 325°
2026-05-04 13:20 57.64427 -5.82277 36017 ft 415 kts 325°
2026-05-04 13:21 57.69382 -5.87705 36014 ft 416 kts 324°
2026-05-04 13:21 57.74370 -5.93188 36023 ft 416 kts 324°
2026-05-04 13:22 57.79357 -5.98687 36020 ft 416 kts 324°
2026-05-04 13:22 57.84347 -6.04207 36015 ft 417 kts 324°
2026-05-04 13:23 57.89310 -6.09714 36014 ft 417 kts 324°
2026-05-04 13:23 57.94304 -6.15275 36008 ft 417 kts 324°
2026-05-04 13:24 57.99299 -6.20853 36004 ft 417 kts 324°
2026-05-04 13:24 58.04286 -6.26442 36000 ft 417 kts 324°
2026-05-04 13:25 58.11731 -6.34820 35996 ft 417 kts 324°
2026-05-04 13:25 58.16705 -6.40439 35999 ft 416 kts 324°
2026-05-04 13:26 58.21677 -6.46076 35993 ft 416 kts 324°
2026-05-04 13:26 58.26637 -6.51717 35999 ft 415 kts 324°
2026-05-04 13:27 58.31504 -6.57272 35998 ft 415 kts 324°
2026-05-04 13:27 58.36450 -6.62935 35997 ft 415 kts 324°
2026-05-04 13:28 58.41390 -6.68608 36009 ft 414 kts 324°
2026-05-04 13:28 58.46317 -6.74286 36004 ft 414 kts 324°
2026-05-04 13:29 58.51240 -6.79979 36002 ft 413 kts 324°
2026-05-04 13:29 58.56121 -6.85642 36003 ft 413 kts 324°
2026-05-04 13:30 58.61028 -6.91353 36004 ft 413 kts 324°
2026-05-04 13:30 58.65934 -6.97083 36008 ft 413 kts 324°
2026-05-04 13:31 58.70804 -7.02789 36007 ft 413 kts 324°
2026-05-04 13:31 58.75707 -7.08553 36002 ft 413 kts 323°
2026-05-04 13:32 58.80606 -7.14333 36007 ft 413 kts 324°
2026-05-04 13:32 58.85499 -7.20123 36007 ft 413 kts 323°
2026-05-04 13:33 58.90360 -7.25896 36001 ft 413 kts 323°
2026-05-04 13:33 58.95249 -7.31721 36004 ft 413 kts 323°
2026-05-04 13:34 59.00135 -7.37562 36002 ft 412 kts 323°
2026-05-04 13:34 59.05014 -7.43414 36004 ft 412 kts 323°
2026-05-04 13:35 59.12297 -7.52188 36008 ft 412 kts 323°
2026-05-04 13:36 59.17166 -7.58078 36011 ft 412 kts 323°
2026-05-04 13:36 59.22038 -7.63991 36014 ft 412 kts 323°
2026-05-04 13:37 59.26902 -7.69915 36016 ft 412 kts 323°
2026-05-04 13:37 59.31730 -7.75816 36017 ft 412 kts 323°
2026-05-04 13:38 59.36586 -7.81771 36017 ft 412 kts 323°
2026-05-04 13:38 59.41436 -7.87738 36022 ft 411 kts 323°
2026-05-04 13:39 59.46247 -7.93678 36022 ft 411 kts 323°
2026-05-04 13:39 59.51081 -7.99668 36021 ft 411 kts 323°
2026-05-04 13:40 59.55911 -8.05672 36024 ft 410 kts 323°
2026-05-04 13:40 59.60735 -8.11690 36022 ft 410 kts 323°
2026-05-04 13:41 59.65553 -8.17722 36029 ft 410 kts 323°
2026-05-04 13:41 59.70332 -8.23723 36031 ft 409 kts 323°
2026-05-04 13:42 59.77534 -8.32809 36031 ft 409 kts 323°
2026-05-04 13:42 59.82332 -8.38888 36031 ft 409 kts 323°
2026-05-04 13:43 59.87086 -8.44932 36033 ft 408 kts 323°
2026-05-04 13:43 59.91874 -8.51034 36038 ft 408 kts 323°
2026-05-04 13:44 59.96655 -8.57132 36042 ft 408 kts 323°
2026-05-04 13:44 60.01427 -8.63259 36043 ft 408 kts 323°
2026-05-04 13:45 60.06162 -8.69365 36039 ft 407 kts 323°
2026-05-04 13:45 60.10923 -8.75527 36042 ft 407 kts 322°
2026-05-04 13:46 60.15679 -8.81701 36041 ft 407 kts 322°
2026-05-04 13:46 60.20433 -8.87894 36041 ft 407 kts 322°
2026-05-04 13:47 60.25147 -8.94057 36045 ft 407 kts 322°
2026-05-04 13:47 60.29887 -9.00277 36048 ft 406 kts 322°
2026-05-04 13:48 60.34615 -9.06505 36045 ft 406 kts 322°
2026-05-04 13:48 60.39328 -9.12750 36041 ft 405 kts 322°
2026-05-04 13:49 60.44040 -9.19001 36041 ft 405 kts 322°
2026-05-04 13:49 60.48710 -9.25213 36042 ft 404 kts 322°
2026-05-04 13:50 60.53400 -9.31476 36042 ft 404 kts 322°
2026-05-04 13:50 60.58090 -9.37757 36043 ft 403 kts 322°
2026-05-04 13:51 60.62739 -9.44130 36043 ft 402 kts 320°
2026-05-04 13:51 60.67219 -9.50783 36045 ft 401 kts 319°
2026-05-04 13:52 60.73969 -9.60895 36042 ft 401 kts 319°
2026-05-04 13:53 60.78480 -9.67624 36046 ft 401 kts 319°
2026-05-04 13:53 60.82993 -9.74367 36045 ft 402 kts 319°
2026-05-04 13:54 60.89728 -9.84474 36054 ft 402 kts 319°
2026-05-04 13:55 60.96486 -9.94670 36049 ft 402 kts 319°
2026-05-04 13:55 60.99869 -10.01087 36055 ft 396 kts 308°
2026-05-04 13:55 61.02029 -10.07172 36039 ft 392 kts 298°
2026-05-04 13:56 61.04686 -10.16918 36044 ft 392 kts 297°
2026-05-04 13:57 61.08649 -10.31690 36045 ft 392 kts 297°
2026-05-04 13:58 61.13499 -10.49737 36046 ft 392 kts 297°
2026-05-04 13:58 61.17891 -10.66157 36045 ft 392 kts 297°
2026-05-04 13:59 61.20097 -10.74449 36047 ft 392 kts 297°
2026-05-04 14:00 61.24009 -10.89227 36049 ft 391 kts 297°
2026-05-04 14:00 61.27919 -11.04098 36052 ft 391 kts 297°
2026-05-04 14:01 61.30517 -11.14033 36052 ft 390 kts 297°
2026-05-04 14:02 61.34372 -11.28858 36051 ft 390 kts 297°
2026-05-04 14:02 61.36947 -11.38813 36051 ft 390 kts 297°
2026-05-04 14:03 61.39504 -11.48743 36044 ft 384 kts 297°
2026-05-04 14:03 61.41969 -11.58357 36049 ft 375 kts 297°
2026-05-04 14:04 61.45623 -11.72695 36055 ft 371 kts 297°
2026-05-04 14:04 61.48039 -11.82225 36062 ft 370 kts 297°
2026-05-04 14:05 61.51650 -11.96543 36060 ft 371 kts 296°
2026-05-04 14:06 61.54036 -12.06057 36068 ft 372 kts 296°
2026-05-04 14:06 61.56440 -12.15682 36069 ft 373 kts 296°
2026-05-04 14:07 61.58845 -12.25353 36072 ft 374 kts 296°
2026-05-04 14:07 61.60027 -12.30117 36051 ft 361 kts 296°
2026-05-04 14:07 61.61163 -12.34707 36048 ft 347 kts 296°
2026-05-04 14:08 61.63342 -12.43543 36063 ft 342 kts 296°
2026-05-04 14:08 61.65522 -12.52425 36073 ft 341 kts 296°
2026-05-04 14:09 61.68775 -12.65742 36072 ft 341 kts 296°
2026-05-04 14:10 61.72002 -12.79030 36076 ft 341 kts 296°
2026-05-04 14:10 61.74159 -12.87959 36081 ft 342 kts 296°
2026-05-04 14:11 61.76317 -12.96926 36082 ft 343 kts 296°
2026-05-04 14:11 61.79549 -13.10425 36081 ft 344 kts 296°
2026-05-04 14:12 61.81685 -13.19394 36082 ft 344 kts 296°
2026-05-04 14:13 61.84900 -13.32963 36088 ft 344 kts 295°
2026-05-04 14:13 61.87038 -13.42032 36089 ft 344 kts 295°
2026-05-04 14:14 61.89154 -13.51051 36084 ft 344 kts 295°
2026-05-04 14:14 61.92338 -13.64685 36090 ft 343 kts 295°
2026-05-04 14:15 61.96550 -13.82858 36093 ft 342 kts 295°
2026-05-04 14:16 61.99671 -13.96424 36096 ft 342 kts 295°
2026-05-04 14:17 62.02747 -14.09878 36100 ft 341 kts 295°
2026-05-04 14:18 62.05845 -14.23515 36105 ft 341 kts 295°
2026-05-04 14:19 62.09940 -14.41674 36105 ft 341 kts 295°
2026-05-04 14:19 62.11984 -14.50798 36104 ft 341 kts 295°
2026-05-04 14:20 62.14025 -14.59946 36107 ft 341 kts 295°
2026-05-04 14:20 62.16047 -14.69047 36103 ft 341 kts 295°
2026-05-04 14:21 62.19087 -14.82810 36111 ft 341 kts 295°
2026-05-04 14:21 62.21109 -14.92009 36111 ft 341 kts 295°
2026-05-04 14:22 62.23094 -15.01081 36113 ft 341 kts 295°
2026-05-04 14:22 62.25090 -15.10244 36113 ft 341 kts 294°
2026-05-04 14:23 62.28096 -15.24119 36117 ft 342 kts 294°
2026-05-04 14:24 62.30094 -15.33389 36120 ft 342 kts 294°
2026-05-04 14:24 62.32085 -15.42671 36125 ft 342 kts 294°
2026-05-04 14:25 62.34059 -15.51910 36126 ft 342 kts 294°
2026-05-04 14:25 62.37024 -15.65873 36127 ft 342 kts 294°
2026-05-04 14:26 62.38996 -15.75207 36128 ft 342 kts 294°
2026-05-04 14:26 62.40945 -15.84479 36127 ft 342 kts 294°
2026-05-04 14:27 62.42903 -15.93833 36133 ft 342 kts 294°
2026-05-04 14:27 62.44853 -16.03188 36133 ft 342 kts 294°
2026-05-04 14:28 62.46796 -16.12557 36135 ft 342 kts 294°
2026-05-04 14:28 62.48722 -16.21883 36137 ft 342 kts 294°
2026-05-04 14:29 62.52594 -16.40761 36136 ft 344 kts 294°
2026-05-04 14:30 62.54525 -16.50239 36137 ft 344 kts 293°
2026-05-04 14:31 62.57401 -16.64442 36141 ft 345 kts 293°
2026-05-04 14:32 62.61232 -16.83512 36142 ft 345 kts 293°
2026-05-04 14:32 62.63136 -16.93061 36151 ft 344 kts 293°
2026-05-04 14:33 62.65022 -17.02559 36146 ft 346 kts 293°
2026-05-04 14:33 62.66949 -17.12314 36162 ft 357 kts 293°
2026-05-04 14:34 62.68938 -17.22426 36162 ft 369 kts 293°
2026-05-04 14:34 62.70976 -17.32845 36162 ft 379 kts 293°
2026-05-04 14:35 62.73064 -17.43573 36161 ft 389 kts 293°
2026-05-04 14:35 62.75176 -17.54484 36161 ft 397 kts 293°
2026-05-04 14:36 62.77320 -17.65622 36148 ft 398 kts 292°
2026-05-04 14:36 62.79458 -17.76790 36156 ft 399 kts 292°
2026-05-04 14:37 62.81581 -17.87971 36154 ft 398 kts 292°
2026-05-04 14:37 62.83671 -17.99073 36154 ft 396 kts 292°
2026-05-04 14:38 62.85766 -18.10216 36159 ft 395 kts 292°
2026-05-04 14:38 62.87849 -18.21328 36154 ft 393 kts 292°
2026-05-04 14:39 62.89912 -18.32405 36161 ft 392 kts 292°
2026-05-04 14:39 62.91948 -18.43398 36161 ft 391 kts 292°
2026-05-04 14:40 62.95002 -18.59982 36168 ft 390 kts 292°
2026-05-04 14:40 62.97027 -18.71073 36173 ft 393 kts 291°
2026-05-04 14:41 62.99627 -18.81581 36168 ft 397 kts 304°
2026-05-04 14:42 63.06128 -19.01219 36162 ft 390 kts 304°
2026-05-04 14:42 63.09300 -19.10891 36179 ft 388 kts 304°
2026-05-04 14:43 63.10857 -19.15662 36157 ft 375 kts 304°
2026-05-04 14:43 63.12353 -19.20264 36159 ft 365 kts 304°
2026-05-04 14:43 63.15293 -19.29359 36187 ft 370 kts 304°
2026-05-04 14:44 63.16799 -19.34039 36006 ft 379 kts 304°
2026-05-04 14:44 63.18354 -19.38879 35460 ft 390 kts 304°
2026-05-04 14:44 63.19929 -19.43789 34820 ft 391 kts 304°
2026-05-04 14:44 63.21506 -19.48709 34090 ft 392 kts 304°
2026-05-04 14:45 63.23082 -19.53637 33415 ft 390 kts 304°
2026-05-04 14:45 63.24624 -19.58467 33247 ft 376 kts 304°
2026-05-04 14:45 63.26107 -19.63121 33124 ft 363 kts 303°
2026-05-04 14:45 63.27545 -19.67646 32776 ft 356 kts 303°
2026-05-04 14:46 63.28946 -19.72066 32298 ft 353 kts 303°
2026-05-04 14:46 63.30350 -19.76505 31829 ft 350 kts 303°
2026-05-04 14:46 63.31740 -19.80911 31391 ft 346 kts 303°
2026-05-04 14:46 63.33112 -19.85264 30986 ft 341 kts 303°
2026-05-04 14:47 63.34465 -19.89568 30586 ft 338 kts 303°
2026-05-04 14:47 63.35806 -19.93840 30168 ft 334 kts 303°
2026-05-04 14:47 63.37128 -19.98060 29684 ft 331 kts 303°
2026-05-04 14:47 63.38438 -20.02249 29154 ft 328 kts 303°
2026-05-04 14:48 63.39738 -20.06415 28651 ft 326 kts 303°
2026-05-04 14:48 63.41008 -20.10493 28170 ft 323 kts 303°
2026-05-04 14:48 63.42281 -20.14585 27698 ft 320 kts 303°
2026-05-04 14:48 63.43547 -20.18661 27228 ft 317 kts 303°
2026-05-04 14:49 63.44798 -20.22699 26767 ft 315 kts 303°
2026-05-04 14:49 63.46039 -20.26711 26320 ft 313 kts 303°
2026-05-04 14:49 63.47271 -20.30701 25886 ft 310 kts 303°
2026-05-04 14:49 63.48491 -20.34660 25447 ft 308 kts 303°
2026-05-04 14:50 63.49703 -20.38601 25023 ft 306 kts 303°
2026-05-04 14:50 63.50904 -20.42511 24605 ft 304 kts 303°
2026-05-04 14:50 63.52082 -20.46348 24208 ft 302 kts 303°
2026-05-04 14:50 63.53267 -20.50217 23812 ft 300 kts 303°
2026-05-04 14:51 63.54441 -20.54060 23351 ft 298 kts 303°
2026-05-04 14:51 63.55553 -20.57953 22893 ft 295 kts 296°
2026-05-04 14:51 63.56276 -20.62255 22448 ft 294 kts 289°
2026-05-04 14:51 63.56830 -20.66652 22005 ft 293 kts 288°
2026-05-04 14:52 63.57355 -20.71058 21561 ft 291 kts 287°
2026-05-04 14:52 63.57872 -20.75411 21137 ft 289 kts 287°
2026-05-04 14:52 63.58377 -20.79620 20736 ft 287 kts 288°
2026-05-04 14:52 63.58898 -20.83934 20331 ft 286 kts 288°
2026-05-04 14:53 63.59419 -20.88226 19928 ft 284 kts 288°
2026-05-04 14:53 63.59938 -20.92494 19534 ft 283 kts 288°
2026-05-04 14:53 63.60454 -20.96738 19147 ft 281 kts 288°
2026-05-04 14:53 63.60968 -21.00961 18767 ft 279 kts 288°
2026-05-04 14:54 63.61479 -21.05164 18364 ft 278 kts 288°
2026-05-04 14:54 63.61985 -21.09350 17914 ft 277 kts 288°
2026-05-04 14:54 63.62481 -21.13468 17490 ft 276 kts 288°
2026-05-04 14:54 63.62980 -21.17616 17063 ft 275 kts 288°
2026-05-04 14:55 63.63473 -21.21758 16640 ft 274 kts 288°
2026-05-04 14:55 63.63964 -21.25893 16233 ft 273 kts 288°
2026-05-04 14:55 63.64450 -21.30005 15830 ft 272 kts 288°
2026-05-04 14:55 63.64934 -21.34108 15445 ft 271 kts 288°
2026-05-04 14:56 63.65415 -21.38198 15050 ft 270 kts 288°
2026-05-04 14:56 63.65894 -21.42271 14663 ft 269 kts 288°
2026-05-04 14:56 63.66371 -21.46340 14279 ft 269 kts 288°
2026-05-04 14:56 63.66838 -21.50345 13899 ft 268 kts 288°
2026-05-04 14:57 63.67310 -21.54400 13467 ft 268 kts 288°
2026-05-04 14:57 63.67781 -21.58452 13046 ft 267 kts 288°
2026-05-04 14:57 63.68250 -21.62505 12587 ft 268 kts 288°
2026-05-04 14:57 63.68721 -21.66591 12138 ft 270 kts 288°
2026-05-04 14:58 63.69192 -21.70684 11751 ft 269 kts 288°
2026-05-04 14:58 63.69651 -21.74694 11655 ft 259 kts 288°
2026-05-04 14:58 63.70090 -21.78543 11577 ft 249 kts 288°
2026-05-04 14:58 63.70513 -21.82259 11439 ft 242 kts 288°
2026-05-04 14:59 63.70930 -21.85916 11139 ft 241 kts 288°
2026-05-04 14:59 63.71344 -21.89551 10803 ft 243 kts 288°
2026-05-04 14:59 63.72185 -21.96951 10180 ft 244 kts 288°
2026-05-04 15:00 63.72605 -22.00677 9846 ft 245 kts 288°
2026-05-04 15:00 63.73023 -22.04396 9530 ft 245 kts 287°
2026-05-04 15:00 63.73441 -22.08119 9210 ft 245 kts 287°
2026-05-04 15:01 63.74273 -22.15576 8584 ft 245 kts 287°
2026-05-04 15:01 63.74682 -22.19252 8281 ft 245 kts 287°
2026-05-04 15:01 63.75099 -22.23001 7882 ft 249 kts 287°
2026-05-04 15:01 63.75530 -22.26882 7247 ft 261 kts 287°
2026-05-04 15:02 63.75979 -22.30946 6618 ft 272 kts 287°
2026-05-04 15:02 63.76445 -22.35170 5947 ft 282 kts 287°
2026-05-04 15:02 63.77115 -22.39042 5299 ft 287 kts 305°
2026-05-04 15:02 63.78371 -22.42583 4655 ft 291 kts 312°
2026-05-04 15:03 63.79673 -22.46040 3983 ft 286 kts 312°
2026-05-04 15:03 63.80932 -22.49419 3422 ft 272 kts 311°
2026-05-04 15:03 63.82095 -22.52578 3089 ft 251 kts 311°
2026-05-04 15:03 63.83136 -22.55421 2994 ft 225 kts 312°
2026-05-04 15:04 63.84078 -22.58001 2973 ft 202 kts 312°
2026-05-04 15:04 63.85097 -22.60010 2529 ft 200 kts 340°
2026-05-04 15:04 63.86455 -22.60360 2137 ft 190 kts 358°
2026-05-04 15:04 63.87701 -22.60499 1848 ft 169 kts 358°
2026-05-04 15:05 63.88816 -22.60547 1660 ft 154 kts
2026-05-04 15:05 63.89831 -22.60551 1492 ft 136 kts
2026-05-04 15:05 63.90701 -22.60551 1293 ft 116 kts
2026-05-04 15:05 63.91453 -22.60552 1143 ft 104 kts 360°
2026-05-04 15:06 63.92209 -22.60552 1038 ft 117 kts
2026-05-04 15:06 63.92992 -22.60552 817 ft 114 kts
2026-05-04 15:06 63.93766 -22.60524 591 ft 110 kts 359°
2026-05-04 15:07 63.95389 -22.60535 382 ft 121 kts
2026-05-04 15:07 63.96227 -22.60543 240 ft 119 kts 360°
2026-05-04 15:07 63.97047 -22.60536 168 ft 110 kts
2026-05-04 15:07 63.97715 -22.60539 171 ft 77 kts 360°
2026-05-04 15:08 63.98097 -22.60606 170 ft 48 kts 341°
2026-05-04 15:08 63.98340 -22.60904 165 ft 32 kts 334°
2026-05-04 15:08 63.98550 -22.60939 164 ft 29 kts 359°
2026-05-04 15:08 63.98747 -22.60940 161 ft 28 kts 360°
2026-05-04 15:09 63.98853 -22.61007 162 ft 7 kts 296°
2026-05-04 15:09 63.98880 -22.61104 159 ft 9 kts 328°
2026-05-04 15:09 63.98951 -22.61123 158 ft 11 kts
2026-05-04 15:10 63.99175 -22.61225 154 ft 21 kts 287°
2026-05-04 15:10 63.99174 -22.61579 146 ft 24 kts 268°
2026-05-04 15:10 63.99243 -22.61986 139 ft 11 kts 358°
2026-05-04 15:11 63.99303 -22.61984 139 ft 7 kts 12°
2026-05-04 15:11 63.99323 -22.61921 139 ft 4 kts 87°
2026-05-04 15:11 63.99323 -22.61857 139 ft 4 kts 90°
2026-05-04 15:11 63.99323 -22.61804 139 ft 1 kts 90°
2026-05-04 15:12 63.99323 -22.61800 139 ft 0 kts 90°